OBJECT E, 59777

Orbit data source: Space-Track

You're viewing an Uncataloged Satellite

Recently launched and/or uncataloged satellites may have evolving metadata. Metadata may include but not limited to: Owner, Maufacturer, Bus, Motor, and Mission.

OBJECT E, 59777 is a satellite owned by Sitronics (CIS) in SSO that was launched on Thu, 16 May 2024 UTC via a SOYUZ-2-1B launch vehicle from the Plesetsk Missile And Space Complex (PKMTR). Unknown objects in Earth's orbit typically refer to objects detected orbiting the Earth but have not yet been identified or cataloged. These objects could be anything from previously untracked satellites, spent rocket stages, debris from satellite collisions, or even natural meteoroids temporarily captured by Earth's gravity.

Loading next visibility...
Identifier
59777, 2024-092E
Orbit
SSO
Last TLE update
13 hours ago
Origin
Manufacturer
Sputniks
Mission
Operational spacecraft
Bus & Motor
CUBESAT 3U?, Unknown motor
Mass
3 kg wet, 3 kg dry
Launch date (UTC)
2024-05-16 (1 year ago)
Launch vehicle
SOYUZ-2-1B
Launch site
Plesetsk Missile And Space Complex (PKMTR)
Object type
Unknown
Shape & HBR
Unknown
Radar Cross Section
Small (<0.1 m²)

Expand to show TLE details & history

TLE from 13 hours ago
0 OBJECT E
1 59777U 24092E   25128.73483017  .00015215  00000-0  67484-3 0  9999
2 59777  97.6173 246.5134 0011363 132.1011 228.1192 15.21630571 53967
Epoch: 2025-05-08T17:38Z
Definitive object data (Epoch: 2025-05-08T17:38:09.326Z)
Latitude
-0.00008°
Longitude
115.17348°
Altitude
509.233 km
Speed
7.606 km/s
True Right ascension
16h 26m 03s
True Declination
0° 00' 00"
Sunlit
Object was in full shadow at TLE epoch
Visualization TLE readout
Latitude
3.4057°
Longitude
-63.80808°
Altitude
498.173 km
Speed
7.619 km/s
Apparent Right ascension
03h 57m 13s
Apparent Declination
-17° 32' 36"
Sunlit
Object is in daylight
Visualization observer readout
Local Sidereal Time
15:10:58
Azimuth
332.57° NNW
Elevation
-65.49°
Doppler factor
1
Orbital elements
Apogee altitude
505.708 km
Perigee altitude
490.081 km
Semi-major axis
6,876.032 km
Eccentricity
0.0011363
Inclination
97.6173°
RAAN
246.5134°
Arg. of periapsis
132.1011°
True anomaly
228.02235°
Mean anomaly
228.1192°
Eccentric anomaly
228.07076°
Mean motion
3.80659 °/min
BSTAR
0.00067484
Orbital period
94.57 mins
Loading maneuver chart data...
Loading SW <> Apogee altitude chart data...
Loading historical data...
Loading historical data...
Loading historical data...
Loading historical data...
Loading historical data...
Loading historical data...
Loading historical data...

OBJECT E Visibility forecast

Observer location: undefined°, undefined°

Span
Click to sort rows by Start time (UTC) header in descending order
Start Az.
Max El. time (UTC)
Max El. Az.
Max El.
End time (UTC)
End Az.
6 mins2025-05-09 07:58:03.020Z174.887° S2025-05-09 08:01:03.020Z278.249° WNW43.372°2025-05-09 08:04:03.020Z342.545° N
5 mins2025-05-09 21:02:03.020Z353.722° N2025-05-09 21:04:03.020Z305.779° NW35.697°2025-05-09 21:07:03.020Z215.556° SW
|